Year,Month,Day,Hour,Minute,Value (Times are PST for temperature in C)
2005,07,22,00,00,17.20
2005,07,22,00,01,17.20
2005,07,22,00,02,17.20
2005,07,22,00,03,17.20
2005,07,22,00,04,17.20
2005,07,22,00,05,17.30
2005,07,22,00,06,17.30
2005,07,22,00,07,17.30
2005,07,22,00,08,17.30
2005,07,22,00,09,17.30
2005,07,22,00,10,17.30
2005,07,22,00,11,17.30
2005,07,22,00,12,17.30
2005,07,22,00,13,17.30
2005,07,22,00,14,17.20
2005,07,22,00,15,17.20
2005,07,22,00,16,17.20
2005,07,22,00,17,17.20
2005,07,22,00,18,17.10
2005,07,22,00,19,17.10
2005,07,22,00,20,17.10
2005,07,22,00,21,17.10
2005,07,22,00,22,17.10
2005,07,22,00,23,17.10
2005,07,22,00,24,17.00
2005,07,22,00,25,17.00
2005,07,22,00,26,17.00
2005,07,22,00,27,17.00
2005,07,22,00,28,17.00
2005,07,22,00,29,17.00
2005,07,22,00,30,17.00
2005,07,22,00,31,16.90
2005,07,22,00,32,16.90
2005,07,22,00,33,16.90
2005,07,22,00,34,16.80
2005,07,22,00,35,16.80
2005,07,22,00,36,16.70
2005,07,22,00,37,16.70
2005,07,22,00,38,16.70
2005,07,22,00,39,16.70
2005,07,22,00,40,16.70
2005,07,22,00,41,16.70
2005,07,22,00,42,16.60
2005,07,22,00,43,16.60
2005,07,22,00,44,16.60
2005,07,22,00,45,16.60
2005,07,22,00,46,16.60
2005,07,22,00,47,16.40
2005,07,22,00,48,16.40
2005,07,22,00,49,16.40
2005,07,22,00,50,16.40
2005,07,22,00,51,16.40
2005,07,22,00,52,16.30
2005,07,22,00,53,16.30
2005,07,22,00,54,16.20
2005,07,22,00,55,16.20
2005,07,22,00,56,16.10
2005,07,22,00,57,16.10
2005,07,22,00,58,16.10
2005,07,22,00,59,16.10
2005,07,22,01,00,16.10
2005,07,22,01,01,16.10
2005,07,22,01,02,16.00
2005,07,22,01,03,15.90
2005,07,22,01,04,15.90
2005,07,22,01,05,15.90
2005,07,22,01,06,15.90
2005,07,22,01,07,15.80
2005,07,22,01,08,15.80
2005,07,22,01,09,15.80
2005,07,22,01,10,15.80
2005,07,22,01,11,15.80
2005,07,22,01,12,15.80
2005,07,22,01,13,15.80
2005,07,22,01,14,15.80
2005,07,22,01,15,15.80
2005,07,22,01,16,15.70
2005,07,22,01,17,15.70
2005,07,22,01,18,15.70
2005,07,22,01,19,15.70
2005,07,22,01,20,15.60
2005,07,22,01,21,15.60
2005,07,22,01,22,15.60
2005,07,22,01,23,15.50
2005,07,22,01,24,15.50
2005,07,22,01,25,15.40
2005,07,22,01,26,15.30
2005,07,22,01,27,15.30
2005,07,22,01,28,15.30
2005,07,22,01,29,15.10
2005,07,22,01,30,15.00
2005,07,22,01,31,14.80
2005,07,22,01,32,14.70
2005,07,22,01,33,14.70
2005,07,22,01,34,14.60
2005,07,22,01,35,14.60
2005,07,22,01,36,14.50
2005,07,22,01,37,14.50
2005,07,22,01,38,14.40
2005,07,22,01,39,14.40
2005,07,22,01,40,14.30
2005,07,22,01,41,14.30
2005,07,22,01,42,14.20
2005,07,22,01,43,14.20
2005,07,22,01,44,14.20
2005,07,22,01,45,14.20
2005,07,22,01,46,14.20
2005,07,22,01,47,14.20
2005,07,22,01,48,14.20
2005,07,22,01,49,14.10
2005,07,22,01,50,14.10
2005,07,22,01,51,14.10
2005,07,22,01,52,14.00
2005,07,22,01,53,14.00
2005,07,22,01,54,14.00
2005,07,22,01,55,14.00
2005,07,22,01,56,13.90
2005,07,22,01,57,13.90
2005,07,22,01,58,13.90
2005,07,22,01,59,13.90
2005,07,22,02,00,13.80
2005,07,22,02,01,13.80
2005,07,22,02,02,13.80
2005,07,22,02,03,13.70
2005,07,22,02,04,13.70
2005,07,22,02,05,13.70
2005,07,22,02,06,13.70
2005,07,22,02,07,13.70
2005,07,22,02,08,13.70
2005,07,22,02,09,13.70
2005,07,22,02,10,13.70
2005,07,22,02,11,13.70
2005,07,22,02,12,13.70
2005,07,22,02,13,13.70
2005,07,22,02,14,13.70
2005,07,22,02,15,13.70
2005,07,22,02,16,13.70
2005,07,22,02,17,13.70
2005,07,22,02,18,13.70
2005,07,22,02,19,13.70
2005,07,22,02,20,13.70
2005,07,22,02,21,13.70
2005,07,22,02,22,13.70
2005,07,22,02,23,13.70
2005,07,22,02,24,13.70
2005,07,22,02,25,13.70
2005,07,22,02,26,13.80
2005,07,22,02,27,13.80
2005,07,22,02,28,13.80
2005,07,22,02,29,13.80
2005,07,22,02,30,13.80
2005,07,22,02,31,13.80
2005,07,22,02,32,13.90
2005,07,22,02,33,13.90
2005,07,22,02,34,13.90
2005,07,22,02,35,13.90
2005,07,22,02,36,13.90
2005,07,22,02,37,13.90
2005,07,22,02,38,13.90
2005,07,22,02,39,13.90
2005,07,22,02,40,14.00
2005,07,22,02,41,14.00
2005,07,22,02,42,14.00
2005,07,22,02,43,14.00
2005,07,22,02,44,14.00
2005,07,22,02,45,14.00
2005,07,22,02,46,14.00
2005,07,22,02,47,14.00
2005,07,22,02,48,14.00
2005,07,22,02,49,14.00
2005,07,22,02,50,14.00
2005,07,22,02,51,14.00
2005,07,22,02,52,14.00
2005,07,22,02,53,14.00
2005,07,22,02,54,14.00
2005,07,22,02,55,14.00
2005,07,22,02,56,14.00
2005,07,22,02,57,14.00
2005,07,22,02,58,14.00
2005,07,22,02,59,14.10
2005,07,22,03,00,14.10
2005,07,22,03,01,14.10
2005,07,22,03,02,14.10
2005,07,22,03,03,14.10
2005,07,22,03,04,14.10
2005,07,22,03,05,14.10
2005,07,22,03,06,14.10
2005,07,22,03,07,14.10
2005,07,22,03,08,14.00
2005,07,22,03,09,14.00
2005,07,22,03,10,14.00
2005,07,22,03,11,14.00
2005,07,22,03,12,13.90
2005,07,22,03,13,13.90
2005,07,22,03,14,13.90
2005,07,22,03,15,13.80
2005,07,22,03,16,13.80
2005,07,22,03,17,13.70
2005,07,22,03,18,13.70
2005,07,22,03,19,13.70
2005,07,22,03,20,13.70
2005,07,22,03,21,13.70
2005,07,22,03,22,13.70
2005,07,22,03,23,13.60
2005,07,22,03,24,13.60
2005,07,22,03,25,13.60
2005,07,22,03,26,13.70
2005,07,22,03,27,13.70
2005,07,22,03,28,13.70
2005,07,22,03,29,13.70
2005,07,22,03,30,13.70
2005,07,22,03,31,13.70
2005,07,22,03,32,13.70
2005,07,22,03,33,13.70
2005,07,22,03,34,13.70
2005,07,22,03,35,13.80
2005,07,22,03,36,13.80
2005,07,22,03,37,13.80
2005,07,22,03,38,13.80
2005,07,22,03,39,13.80
2005,07,22,03,40,13.90
2005,07,22,03,41,13.90
2005,07,22,03,42,13.90
2005,07,22,03,43,13.90
2005,07,22,03,44,13.90
2005,07,22,03,45,13.90
2005,07,22,03,46,13.90
2005,07,22,03,47,13.90
2005,07,22,03,48,14.00
2005,07,22,03,49,14.00
2005,07,22,03,50,14.00
2005,07,22,03,51,14.00
2005,07,22,03,52,14.00
2005,07,22,03,53,14.00
2005,07,22,03,54,14.00
2005,07,22,03,55,14.00
2005,07,22,03,56,14.00
2005,07,22,03,57,14.00
2005,07,22,03,58,14.00
2005,07,22,03,59,14.00
2005,07,22,04,00,14.00
2005,07,22,04,01,14.00
2005,07,22,04,02,14.00
2005,07,22,04,03,14.00
2005,07,22,04,04,13.90
2005,07,22,04,05,13.90
2005,07,22,04,06,13.90
2005,07,22,04,07,13.90
2005,07,22,04,08,13.90
2005,07,22,04,09,13.90
2005,07,22,04,10,13.80
2005,07,22,04,11,13.80
2005,07,22,04,12,13.80
2005,07,22,04,13,13.80
2005,07,22,04,14,13.70
2005,07,22,04,15,13.70
2005,07,22,04,16,13.70
2005,07,22,04,17,13.70
2005,07,22,04,18,13.70
2005,07,22,04,19,13.70
2005,07,22,04,20,13.70
2005,07,22,04,21,13.70
2005,07,22,04,22,13.70
2005,07,22,04,23,13.70
2005,07,22,04,24,13.70
2005,07,22,04,25,13.70
2005,07,22,04,26,13.70
2005,07,22,04,27,13.70
2005,07,22,04,28,13.70
2005,07,22,04,29,13.70
2005,07,22,04,30,13.70
2005,07,22,04,31,13.70
2005,07,22,04,32,13.70
2005,07,22,04,33,13.70
2005,07,22,04,34,13.70
2005,07,22,04,35,13.70
2005,07,22,04,36,13.70
2005,07,22,04,37,13.70
2005,07,22,04,38,13.70
2005,07,22,04,39,13.70
2005,07,22,04,40,13.70
2005,07,22,04,41,13.70
2005,07,22,04,42,13.70
2005,07,22,04,43,13.80
2005,07,22,04,44,13.80
2005,07,22,04,45,13.80
2005,07,22,04,46,13.80
2005,07,22,04,47,13.80
2005,07,22,04,48,13.80
2005,07,22,04,49,13.90
2005,07,22,04,50,13.90
2005,07,22,04,51,13.90
2005,07,22,04,52,13.90
2005,07,22,04,53,13.90
2005,07,22,04,54,13.90
2005,07,22,04,55,14.00
2005,07,22,04,56,14.00
2005,07,22,04,57,14.00
2005,07,22,04,58,14.00
2005,07,22,04,59,14.00
2005,07,22,05,00,14.00
2005,07,22,05,01,14.00
2005,07,22,05,02,14.00
2005,07,22,05,03,14.00
2005,07,22,05,04,14.00
2005,07,22,05,05,14.00
2005,07,22,05,06,14.00
2005,07,22,05,07,14.00
2005,07,22,05,08,14.00
2005,07,22,05,09,14.00
2005,07,22,05,10,14.00
2005,07,22,05,11,14.00
2005,07,22,05,12,14.00
2005,07,22,05,13,14.10
2005,07,22,05,14,14.10
2005,07,22,05,15,14.10
2005,07,22,05,16,14.10
2005,07,22,05,17,14.10
2005,07,22,05,18,14.10
2005,07,22,05,19,14.10
2005,07,22,05,20,14.10
2005,07,22,05,21,14.10
2005,07,22,05,22,14.10
2005,07,22,05,23,14.10
2005,07,22,05,24,14.10
2005,07,22,05,25,14.10
2005,07,22,05,26,14.10
2005,07,22,05,27,14.20
2005,07,22,05,28,14.20
2005,07,22,05,29,14.20
2005,07,22,05,30,14.20
2005,07,22,05,31,14.20
2005,07,22,05,32,14.20
2005,07,22,05,33,14.20
2005,07,22,05,34,14.20
2005,07,22,05,35,14.20
2005,07,22,05,36,14.20
2005,07,22,05,37,14.20
2005,07,22,05,38,14.20
2005,07,22,05,39,14.20
2005,07,22,05,40,14.20
2005,07,22,05,41,14.30
2005,07,22,05,42,14.30
2005,07,22,05,43,14.30
2005,07,22,05,44,14.40
2005,07,22,05,45,14.40
2005,07,22,05,46,14.40
2005,07,22,05,47,14.50
2005,07,22,05,48,14.50
2005,07,22,05,49,14.50
2005,07,22,05,50,14.50
2005,07,22,05,51,14.60
2005,07,22,05,52,14.60
2005,07,22,05,53,14.60
2005,07,22,05,54,14.60
2005,07,22,05,55,14.70
2005,07,22,05,56,14.70
2005,07,22,05,57,14.70
2005,07,22,05,58,14.80
2005,07,22,05,59,14.80
2005,07,22,06,00,14.80
2005,07,22,06,01,14.80
2005,07,22,06,02,14.80
2005,07,22,06,03,14.80
2005,07,22,06,04,14.80
2005,07,22,06,05,14.70
2005,07,22,06,06,14.70
2005,07,22,06,07,14.60
2005,07,22,06,08,14.50
2005,07,22,06,09,14.40
2005,07,22,06,10,14.20
2005,07,22,06,11,14.00
2005,07,22,06,12,13.80
2005,07,22,06,13,13.60
2005,07,22,06,14,13.50
2005,07,22,06,15,13.40
2005,07,22,06,16,13.40
2005,07,22,06,17,13.30
2005,07,22,06,18,13.30
2005,07,22,06,19,13.30
2005,07,22,06,20,13.30
2005,07,22,06,21,13.20
2005,07,22,06,22,13.20
2005,07,22,06,23,13.10
2005,07,22,06,24,13.10
2005,07,22,06,25,13.10
2005,07,22,06,26,13.00
2005,07,22,06,27,13.00
2005,07,22,06,28,13.00
2005,07,22,06,29,13.00
2005,07,22,06,30,13.00
2005,07,22,06,31,13.00
2005,07,22,06,32,13.00
2005,07,22,06,33,13.00
2005,07,22,06,34,13.00
2005,07,22,06,35,13.00
2005,07,22,06,36,13.00
2005,07,22,06,37,13.00
2005,07,22,06,38,12.90
2005,07,22,06,39,12.90
2005,07,22,06,40,12.90
2005,07,22,06,41,12.90
2005,07,22,06,42,12.90
2005,07,22,06,43,13.00
2005,07,22,06,44,13.00
2005,07,22,06,45,13.00
2005,07,22,06,46,13.00
2005,07,22,06,47,13.00
2005,07,22,06,48,13.00
2005,07,22,06,49,13.10
2005,07,22,06,50,13.10
2005,07,22,06,51,13.20
2005,07,22,06,52,13.30
2005,07,22,06,53,13.30
2005,07,22,06,54,13.30
2005,07,22,06,55,13.40
2005,07,22,06,56,13.40
2005,07,22,06,57,13.50
2005,07,22,06,58,13.50
2005,07,22,06,59,13.50
2005,07,22,07,00,13.50
2005,07,22,07,01,13.50
2005,07,22,07,02,13.50
2005,07,22,07,03,13.60
2005,07,22,07,04,13.60
2005,07,22,07,05,13.60
2005,07,22,07,06,13.50
2005,07,22,07,07,13.40
2005,07,22,07,08,13.30
2005,07,22,07,09,13.30
2005,07,22,07,10,13.20
2005,07,22,07,11,13.20
2005,07,22,07,12,13.20
2005,07,22,07,13,13.20
2005,07,22,07,14,13.20
2005,07,22,07,15,13.20
2005,07,22,07,16,13.20
2005,07,22,07,17,13.30
2005,07,22,07,18,13.30
2005,07,22,07,19,13.30
2005,07,22,07,20,13.30
2005,07,22,07,21,13.30
2005,07,22,07,22,13.30
2005,07,22,07,23,13.30
2005,07,22,07,24,13.30
2005,07,22,07,25,13.40
2005,07,22,07,26,13.40
2005,07,22,07,27,13.50
2005,07,22,07,28,13.60
2005,07,22,07,29,13.60
2005,07,22,07,30,13.70
2005,07,22,07,31,13.70
2005,07,22,07,32,13.70
2005,07,22,07,33,13.80
2005,07,22,07,34,13.80
2005,07,22,07,35,13.90
2005,07,22,07,36,13.90
2005,07,22,07,37,14.00
2005,07,22,07,38,14.10
2005,07,22,07,39,14.10
2005,07,22,07,40,14.20
2005,07,22,07,41,14.30
2005,07,22,07,42,14.30
2005,07,22,07,43,14.40
2005,07,22,07,44,14.40
2005,07,22,07,45,14.50
2005,07,22,07,46,14.50
2005,07,22,07,47,14.60
2005,07,22,07,48,14.60
2005,07,22,07,49,14.60
2005,07,22,07,50,14.60
2005,07,22,07,51,14.70
2005,07,22,07,52,14.70
2005,07,22,07,53,14.70
2005,07,22,07,54,14.80
2005,07,22,07,55,14.80
2005,07,22,07,56,14.80
2005,07,22,07,57,14.80
2005,07,22,07,58,14.80
2005,07,22,07,59,14.80
2005,07,22,08,00,14.80
2005,07,22,08,01,14.80
2005,07,22,08,02,14.80
2005,07,22,08,03,14.80
2005,07,22,08,04,14.90
2005,07,22,08,05,14.90
2005,07,22,08,06,15.00
2005,07,22,08,07,15.00
2005,07,22,08,08,15.10
2005,07,22,08,09,15.10
2005,07,22,08,10,15.10
2005,07,22,08,11,15.20
2005,07,22,08,12,15.20
2005,07,22,08,13,15.20
2005,07,22,08,14,15.30
2005,07,22,08,15,15.30
2005,07,22,08,16,15.30
2005,07,22,08,17,15.30
2005,07,22,08,18,15.30
2005,07,22,08,19,15.30
2005,07,22,08,20,15.30
2005,07,22,08,21,15.40
2005,07,22,08,22,15.40
2005,07,22,08,23,15.40
2005,07,22,08,24,15.50
2005,07,22,08,25,15.50
2005,07,22,08,26,15.50
2005,07,22,08,27,15.60
2005,07,22,08,28,15.60
2005,07,22,08,29,15.70
2005,07,22,08,30,15.70
2005,07,22,08,31,15.70
2005,07,22,08,32,15.70
2005,07,22,08,33,15.70
2005,07,22,08,34,15.80
2005,07,22,08,35,15.80
2005,07,22,08,36,15.80
2005,07,22,08,37,15.80
2005,07,22,08,38,15.80
2005,07,22,08,39,15.80
2005,07,22,08,40,15.80
2005,07,22,08,41,15.90
2005,07,22,08,42,15.90
2005,07,22,08,43,16.00
2005,07,22,08,44,16.10
2005,07,22,08,45,16.10
2005,07,22,08,46,16.10
2005,07,22,08,47,16.10
2005,07,22,08,48,16.20
2005,07,22,08,49,16.20
2005,07,22,08,50,16.20
2005,07,22,08,51,16.30
2005,07,22,08,52,16.30
2005,07,22,08,53,16.30
2005,07,22,08,54,16.40
2005,07,22,08,55,16.40
2005,07,22,08,56,16.40
2005,07,22,08,57,16.40
2005,07,22,08,58,16.50
2005,07,22,08,59,16.60
2005,07,22,09,00,16.60
2005,07,22,09,01,16.60
2005,07,22,09,02,16.60
2005,07,22,09,03,16.70
2005,07,22,09,04,16.70
2005,07,22,09,05,16.70
2005,07,22,09,06,16.80
2005,07,22,09,07,16.90
2005,07,22,09,08,16.90
2005,07,22,09,09,16.90
2005,07,22,09,10,17.00
2005,07,22,09,11,17.00
2005,07,22,09,12,17.00
2005,07,22,09,13,17.00
2005,07,22,09,14,17.10
2005,07,22,09,15,17.10
2005,07,22,09,16,17.10
2005,07,22,09,17,17.10
2005,07,22,09,18,17.10
2005,07,22,09,19,17.10
2005,07,22,09,20,17.10
2005,07,22,09,21,17.10
2005,07,22,09,22,17.10
2005,07,22,09,23,17.10
2005,07,22,09,24,17.20
2005,07,22,09,25,17.20
2005,07,22,09,26,17.10
2005,07,22,09,27,17.00
2005,07,22,09,28,16.90
2005,07,22,09,29,16.80
2005,07,22,09,30,16.70
2005,07,22,09,31,16.60
2005,07,22,09,32,16.50
2005,07,22,09,33,16.40
2005,07,22,09,34,16.30
2005,07,22,09,35,16.30
2005,07,22,09,36,16.30
2005,07,22,09,37,16.30
2005,07,22,09,38,16.40
2005,07,22,09,39,16.40
2005,07,22,09,40,16.50
2005,07,22,09,41,16.60
2005,07,22,09,42,16.60
2005,07,22,09,43,16.70
2005,07,22,09,44,16.70
2005,07,22,09,45,16.70
2005,07,22,09,46,16.70
2005,07,22,09,47,16.70
2005,07,22,09,48,16.70
2005,07,22,09,49,16.70
2005,07,22,09,50,16.70
2005,07,22,09,51,16.70
2005,07,22,09,52,16.70
2005,07,22,09,53,16.80
2005,07,22,09,54,16.80
2005,07,22,09,55,16.80
2005,07,22,09,56,16.80
2005,07,22,09,57,16.80
2005,07,22,09,58,16.90
2005,07,22,09,59,16.90
2005,07,22,10,00,17.00
2005,07,22,10,01,17.00
2005,07,22,10,02,17.00
2005,07,22,10,03,17.00
2005,07,22,10,04,17.10
2005,07,22,10,05,17.10
2005,07,22,10,06,17.10
2005,07,22,10,07,17.10
2005,07,22,10,08,17.20
2005,07,22,10,09,17.20
2005,07,22,10,10,17.20
2005,07,22,10,11,17.30
2005,07,22,10,12,17.30
2005,07,22,10,13,17.30
2005,07,22,10,14,17.30
2005,07,22,10,15,17.30
2005,07,22,10,16,17.30
2005,07,22,10,17,17.30
2005,07,22,10,18,17.30
2005,07,22,10,19,17.30
2005,07,22,10,20,17.20
2005,07,22,10,21,17.10
2005,07,22,10,22,17.00
2005,07,22,10,23,16.90
2005,07,22,10,24,16.90
2005,07,22,10,25,16.90
2005,07,22,10,26,16.80
2005,07,22,10,27,16.90
2005,07,22,10,28,16.90
2005,07,22,10,29,16.90
2005,07,22,10,30,16.90
2005,07,22,10,31,17.00
2005,07,22,10,32,17.00
2005,07,22,10,33,17.00
2005,07,22,10,34,17.10
2005,07,22,10,35,17.10
2005,07,22,10,36,17.20
2005,07,22,10,37,17.20
2005,07,22,10,38,17.30
2005,07,22,10,39,17.30
2005,07,22,10,40,17.40
2005,07,22,10,41,17.40
2005,07,22,10,42,17.50
2005,07,22,10,43,17.50
2005,07,22,10,44,17.50
2005,07,22,10,45,17.50
2005,07,22,10,46,17.60
2005,07,22,10,47,17.60
2005,07,22,10,48,17.60
2005,07,22,10,49,17.50
2005,07,22,10,50,17.50
2005,07,22,10,51,17.40
2005,07,22,10,52,17.40
2005,07,22,10,53,17.50
2005,07,22,10,54,17.50
2005,07,22,10,55,17.60
2005,07,22,10,56,17.60
2005,07,22,10,57,17.70
2005,07,22,10,58,17.70
2005,07,22,10,59,17.70
2005,07,22,11,00,17.60
2005,07,22,11,01,17.50
2005,07,22,11,02,17.50
2005,07,22,11,03,17.50
2005,07,22,11,04,17.50
2005,07,22,11,05,17.50
2005,07,22,11,06,17.60
2005,07,22,11,07,17.60
2005,07,22,11,08,17.60
2005,07,22,11,09,17.60
2005,07,22,11,10,17.60
2005,07,22,11,11,17.70
2005,07,22,11,12,17.60
2005,07,22,11,13,17.50
2005,07,22,11,14,17.50
2005,07,22,11,15,17.50
2005,07,22,11,16,17.40
2005,07,22,11,17,17.40
2005,07,22,11,18,17.30
2005,07,22,11,19,17.30
2005,07,22,11,20,17.20
2005,07,22,11,21,17.20
2005,07,22,11,22,17.00
2005,07,22,11,23,16.90
2005,07,22,11,24,16.90
2005,07,22,11,25,16.80
2005,07,22,11,26,16.80
2005,07,22,11,27,16.70
2005,07,22,11,28,16.70
2005,07,22,11,29,16.60
2005,07,22,11,30,16.60
2005,07,22,11,31,16.60
2005,07,22,11,32,16.50
2005,07,22,11,33,16.50
2005,07,22,11,34,16.60
2005,07,22,11,35,16.60
2005,07,22,11,36,16.70
2005,07,22,11,37,16.70
2005,07,22,11,38,16.70
2005,07,22,11,39,16.70
2005,07,22,11,40,16.80
2005,07,22,11,41,16.80
2005,07,22,11,42,16.80
2005,07,22,11,43,16.70
2005,07,22,11,44,16.70
2005,07,22,11,45,16.70
2005,07,22,11,46,16.70
2005,07,22,11,47,16.70
2005,07,22,11,48,16.70
2005,07,22,11,49,16.70
2005,07,22,11,50,16.70
2005,07,22,11,51,16.70
2005,07,22,11,52,16.80
2005,07,22,11,53,16.80
2005,07,22,11,54,16.80
2005,07,22,11,55,16.80
2005,07,22,11,56,16.90
2005,07,22,11,57,16.90
2005,07,22,11,58,16.90
2005,07,22,11,59,16.90
2005,07,22,12,00,16.90
2005,07,22,12,01,17.00
2005,07,22,12,02,17.10
2005,07,22,12,03,17.20
2005,07,22,12,04,17.30
2005,07,22,12,05,17.30
2005,07,22,12,06,17.30
2005,07,22,12,07,17.30
2005,07,22,12,08,17.40
2005,07,22,12,09,17.50
2005,07,22,12,10,17.50
2005,07,22,12,11,17.60
2005,07,22,12,12,17.60
2005,07,22,12,13,17.60
2005,07,22,12,14,17.60
2005,07,22,12,15,17.60
2005,07,22,12,16,17.60
2005,07,22,12,17,17.60
2005,07,22,12,18,17.60
2005,07,22,12,19,17.60
2005,07,22,12,20,17.60
2005,07,22,12,21,17.70
2005,07,22,12,22,17.70
2005,07,22,12,23,17.80
2005,07,22,12,24,17.90
2005,07,22,12,25,17.90
2005,07,22,12,26,17.90
2005,07,22,12,27,17.90
2005,07,22,12,28,17.90
2005,07,22,12,29,17.90
2005,07,22,12,30,18.10
2005,07,22,12,31,18.10
2005,07,22,12,32,18.20
2005,07,22,12,33,18.40
2005,07,22,12,34,18.50
2005,07,22,12,35,18.50
2005,07,22,12,36,18.60
2005,07,22,12,37,18.80
2005,07,22,12,38,18.90
2005,07,22,12,39,19.00
2005,07,22,12,40,19.10
2005,07,22,12,41,19.20
2005,07,22,12,42,19.30
2005,07,22,12,43,19.40
2005,07,22,12,44,19.50
2005,07,22,12,45,19.60
2005,07,22,12,46,19.70
2005,07,22,12,47,19.70
2005,07,22,12,48,19.90
2005,07,22,12,49,20.00
2005,07,22,12,50,20.10
2005,07,22,12,51,20.20
2005,07,22,12,52,20.10
2005,07,22,12,53,20.10
2005,07,22,12,54,20.10
2005,07,22,12,55,20.10
2005,07,22,12,56,20.10
2005,07,22,12,57,20.10
2005,07,22,12,58,20.10
2005,07,22,12,59,20.10
2005,07,22,13,00,20.10
2005,07,22,13,01,20.10
2005,07,22,13,02,20.20
2005,07,22,13,03,20.20
2005,07,22,13,04,20.30
2005,07,22,13,05,20.30
2005,07,22,13,06,20.30
2005,07,22,13,07,20.20
2005,07,22,13,08,20.20
2005,07,22,13,09,20.20
2005,07,22,13,10,20.20
2005,07,22,13,11,20.10
2005,07,22,13,12,19.80
2005,07,22,13,13,19.60
2005,07,22,13,14,19.50
2005,07,22,13,15,19.30
2005,07,22,13,16,19.30
2005,07,22,13,17,19.30
2005,07,22,13,18,19.20
2005,07,22,13,19,19.30
2005,07,22,13,20,19.30
2005,07,22,13,21,19.30
2005,07,22,13,22,19.20
2005,07,22,13,23,19.00
2005,07,22,13,24,18.80
2005,07,22,13,25,18.60
2005,07,22,13,26,18.70
2005,07,22,13,27,18.70
2005,07,22,13,28,18.60
2005,07,22,13,29,18.70
2005,07,22,13,30,18.70
2005,07,22,13,31,18.50
2005,07,22,13,32,18.30
2005,07,22,13,33,18.10
2005,07,22,13,34,18.00
2005,07,22,13,35,17.90
2005,07,22,13,36,17.80
2005,07,22,13,37,17.50
2005,07,22,13,38,17.30
2005,07,22,13,39,17.10
2005,07,22,13,40,17.10
2005,07,22,13,41,17.20
2005,07,22,13,42,17.10
2005,07,22,13,43,17.00
2005,07,22,13,44,16.90
2005,07,22,13,45,16.80
2005,07,22,13,46,16.70
2005,07,22,13,47,16.60
2005,07,22,13,48,16.50
2005,07,22,13,49,16.50
2005,07,22,13,50,16.50
2005,07,22,13,51,16.30
2005,07,22,13,52,16.10
2005,07,22,13,53,15.90
2005,07,22,13,54,15.90
2005,07,22,13,55,15.90
2005,07,22,13,56,16.10
2005,07,22,13,57,16.20
2005,07,22,13,58,16.40
2005,07,22,13,59,16.60
2005,07,22,14,00,16.50
2005,07,22,14,01,16.40
2005,07,22,14,02,16.40
2005,07,22,14,03,16.50
2005,07,22,14,04,16.70
2005,07,22,14,05,16.80
2005,07,22,14,06,16.70
2005,07,22,14,07,16.70
2005,07,22,14,08,16.70
2005,07,22,14,09,16.90
2005,07,22,14,10,17.10
2005,07,22,14,11,17.20
2005,07,22,14,12,17.20
2005,07,22,14,13,17.20
2005,07,22,14,14,17.20
2005,07,22,14,15,17.20
2005,07,22,14,16,17.30
2005,07,22,14,17,17.40
2005,07,22,14,18,17.60
2005,07,22,14,19,17.80
2005,07,22,14,20,18.00
2005,07,22,14,21,18.20
2005,07,22,14,22,18.30
2005,07,22,14,23,18.60
2005,07,22,14,24,18.80
2005,07,22,14,25,19.00
2005,07,22,14,26,19.20
2005,07,22,14,27,19.20
2005,07,22,14,28,19.20
2005,07,22,14,29,19.20
2005,07,22,14,30,19.10
2005,07,22,14,31,18.90
2005,07,22,14,32,18.80
2005,07,22,14,33,18.50
2005,07,22,14,34,18.30
2005,07,22,14,35,18.10
2005,07,22,14,36,17.90
2005,07,22,14,37,17.80
2005,07,22,14,38,17.90
2005,07,22,14,39,17.90
2005,07,22,14,40,17.90
2005,07,22,14,41,17.90
2005,07,22,14,42,17.70
2005,07,22,14,43,17.50
2005,07,22,14,44,17.40
2005,07,22,14,45,17.30
2005,07,22,14,46,17.30
2005,07,22,14,47,17.30
2005,07,22,14,48,17.30
2005,07,22,14,49,17.30
2005,07,22,14,50,17.30
2005,07,22,14,51,17.40
2005,07,22,14,52,17.60
2005,07,22,14,53,17.80
2005,07,22,14,54,18.00
2005,07,22,14,55,18.20
2005,07,22,14,56,18.30
2005,07,22,14,57,18.40
2005,07,22,14,58,18.40
2005,07,22,14,59,18.30
2005,07,22,15,00,18.20
2005,07,22,15,01,18.20
2005,07,22,15,02,18.10
2005,07,22,15,03,17.90
2005,07,22,15,04,17.60
2005,07,22,15,05,17.40
2005,07,22,15,06,17.20
2005,07,22,15,07,17.00
2005,07,22,15,08,17.00
2005,07,22,15,09,17.00
2005,07,22,15,10,17.00
2005,07,22,15,11,17.00
2005,07,22,15,12,17.20
2005,07,22,15,13,17.40
2005,07,22,15,14,17.60
2005,07,22,15,15,17.90
2005,07,22,15,16,18.20
